This is the latest recevied weather packets stored in our database for station/object N7ZAP. If no packets are shown the sender has not sent any weather packets the latest 10 day(s).
| Time | Temp. | Humidity | Pressure | Rain* | Wind** | Luminosity | Snow |
|---|---|---|---|---|---|---|---|
| 1777589498 | 25.56° C | 11% | 1008.9 hPa | 0 mm | - | - | - |
| 1777589198 | 25.56° C | 12% | 1009 hPa | 0 mm | - | - | - |
| 1777588894 | 25.56° C | 12% | 1009.1 hPa | 0 mm | - | - | - |
| 1777588590 | 25° C | 11% | 1009.5 hPa | 0 mm | - | - | - |
| 1777588286 | 25.56° C | 11% | 1009.7 hPa | 0 mm | - | - | - |
| 1777587981 | 26.11° C | 11% | 1009.3 hPa | 0 mm | - | - | - |
| 1777587678 | 25.56° C | 11% | 1009.6 hPa | 0 mm | - | - | - |
| 1777587377 | 25.56° C | 12% | 1009.6 hPa | 0 mm | - | - | - |
| 1777587074 | 26.11° C | 11% | 1009.6 hPa | 0 mm | - | - | - |
| 1777586770 | 26.11° C | 11% | 1009.6 hPa | 0 mm | - | - | - |
| 1777586465 | 26.11° C | 11% | 1010.1 hPa | 0 mm | - | - | - |
| 1777586161 | 26.67° C | 11% | 1010 hPa | 0 mm | - | - | - |
| 1777585859 | 26.67° C | 11% | 1010.3 hPa | 0 mm | - | - | - |
| 1777585558 | 26.67° C | 10% | 1010.3 hPa | 0 mm | - | - | - |
| 1777585255 | 27.22° C | 10% | 1010.3 hPa | 0 mm | - | - | - |
| 1777584949 | 27.22° C | 11% | 1010.8 hPa | 0 mm | - | - | - |
| 1777584647 | 26.67° C | 11% | 1010.7 hPa | 0 mm | - | - | - |
| 1777584344 | 26.67° C | 10% | 1010.8 hPa | 0 mm | - | - | - |
| 1777584040 | 26.67° C | 10% | 1010.8 hPa | 0 mm | - | - | - |
| 1777583734 | 26.67° C | 11% | 1010.8 hPa | 0 mm | - | - | - |
| 1777583433 | 26.67° C | 10% | 1010.8 hPa | 0 mm | - | - | - |
| 1777583133 | 26.11° C | 11% | 1010.8 hPa | 0 mm | - | - | - |
| 1777582829 | 26.11° C | 10% | 1011.1 hPa | 0 mm | - | - | - |
| 1777582526 | 26.11° C | 11% | 1011.3 hPa | 0 mm | - | - | - |
| 1777582221 | 26.67° C | 11% | 1011.2 hPa | 0 mm | - | - | - |
* Rain latest hour (hover to see other rain measurements)
** Current wind speed in m/s (hover to see current wind gust speed)